DLH6YM EDDF-EDDN

Flight info

Callsign DLH6YM
Flight time 0h 23m
Altitude 27000
Route CINDY6F CINDY Z74 HAREM T104 ELMOX DCT LETKU LETKU1T
Aircraft A319/M-SDE2E3FGIJ1LORWXYZ/HB1

Departure

Time 2026-04-19 06:22
Airport Frankfurt Main Airport (EDDF)

Arrival

Time 2026-04-19 06:46
Airport Nuremberg Airport (EDDN)
Time Latitude Longitude Altitude Speed Heading
2026-04-19 05:59 50.04544 8.56228 356 ft 0 kts 39°
2026-04-19 06:12 50.04535 8.56218 363 ft 3 kts 52°
2026-04-19 06:13 50.04527 8.56198 365 ft 3 kts 22°
2026-04-19 06:13 50.04510 8.56200 358 ft 3 kts 329°
2026-04-19 06:13 50.04495 8.56215 362 ft 3 kts 312°
2026-04-19 06:13 50.04483 8.56235 358 ft 1 kts 305°
2026-04-19 06:14 50.04480 8.56241 358 ft 2 kts 285°
2026-04-19 06:14 50.04478 8.56247 358 ft 0 kts 263°
2026-04-19 06:16 50.04477 8.56231 365 ft 4 kts 264°
2026-04-19 06:16 50.04460 8.56149 356 ft 12 kts 250°
2026-04-19 06:16 50.04423 8.56031 356 ft 11 kts 217°
2026-04-19 06:17 50.04358 8.56048 359 ft 9 kts 160°
2026-04-19 06:17 50.04304 8.56088 359 ft 9 kts 137°
2026-04-19 06:17 50.04291 8.56181 355 ft 8 kts 95°
2026-04-19 06:17 50.04257 8.56237 357 ft 7 kts 168°
2026-04-19 06:18 50.04215 8.56255 356 ft 6 kts 159°
2026-04-19 06:18 50.04182 8.56274 361 ft 5 kts 160°
2026-04-19 06:18 50.04145 8.56324 358 ft 9 kts 108°
2026-04-19 06:18 50.04162 8.56426 357 ft 11 kts 69°
2026-04-19 06:19 50.04194 8.56559 356 ft 15 kts 69°
2026-04-19 06:19 50.04233 8.56725 359 ft 18 kts 70°
2026-04-19 06:19 50.04282 8.56927 359 ft 21 kts 69°
2026-04-19 06:19 50.04326 8.57114 361 ft 16 kts 69°
2026-04-19 06:20 50.04361 8.57260 363 ft 13 kts 69°
2026-04-19 06:20 50.04391 8.57385 361 ft 12 kts 70°
2026-04-19 06:20 50.04422 8.57514 363 ft 13 kts 69°
2026-04-19 06:20 50.04418 8.57625 365 ft 9 kts 116°
2026-04-19 06:21 50.04380 8.57663 367 ft 7 kts 162°
2026-04-19 06:21 50.04319 8.57693 364 ft 11 kts 162°
2026-04-19 06:21 50.04261 8.57652 362 ft 10 kts 257°
2026-04-19 06:21 50.04236 8.57541 366 ft 15 kts 250°
2026-04-19 06:22 50.04105 8.56990 366 ft 98 kts 250°
2026-04-19 06:22 50.03781 8.55623 366 ft 166 kts 250°
2026-04-19 06:22 50.03382 8.53926 1075 ft 163 kts 252°
2026-04-19 06:22 50.02993 8.52304 1900 ft 162 kts 258°
2026-04-19 06:23 50.02406 8.50737 2517 ft 185 kts 230°
2026-04-19 06:23 50.01172 8.49702 2911 ft 219 kts 204°
2026-04-19 06:23 49.99630 8.49088 3508 ft 241 kts 185°
2026-04-19 06:23 49.98008 8.49850 4636 ft 246 kts 147°
2026-04-19 06:24 49.96915 8.51841 5786 ft 248 kts 121°
2026-04-19 06:24 49.96035 8.54219 6757 ft 259 kts 121°
2026-04-19 06:24 49.95114 8.56782 7344 ft 284 kts 121°
2026-04-19 06:24 49.94286 8.59614 8089 ft 300 kts 107°
2026-04-19 06:25 49.93971 8.62850 9048 ft 308 kts 93°
2026-04-19 06:25 49.93676 8.66164 10027 ft 313 kts 108°
2026-04-19 06:25 49.92781 8.69298 10652 ft 328 kts 126°
2026-04-19 06:25 49.91285 8.72086 11308 ft 336 kts 142°
2026-04-19 06:26 49.89446 8.74249 12207 ft 337 kts 149°
2026-04-19 06:26 49.87695 8.76739 13147 ft 348 kts 135°
2026-04-19 06:26 49.86282 8.79833 14080 ft 356 kts 125°
2026-04-19 06:26 49.85094 8.83236 14886 ft 361 kts 120°
2026-04-19 06:27 49.83999 8.86765 15704 ft 366 kts 119°
2026-04-19 06:27 49.82895 8.90339 16515 ft 369 kts 120°
2026-04-19 06:27 49.81739 8.93903 17319 ft 372 kts 121°
2026-04-19 06:27 49.80517 8.97458 18122 ft 375 kts 123°
2026-04-19 06:28 49.79243 9.01004 18833 ft 379 kts 123°
2026-04-19 06:28 49.77933 9.04568 19532 ft 383 kts 124°
2026-04-19 06:28 49.76651 9.08206 20196 ft 390 kts 118°
2026-04-19 06:28 49.75722 9.12187 20862 ft 398 kts 108°
2026-04-19 06:29 49.74948 9.16309 21518 ft 400 kts 115°
2026-04-19 06:29 49.73902 9.20302 22184 ft 404 kts 113°
2026-04-19 06:29 49.73094 9.24465 22072 ft 401 kts 107°
2026-04-19 06:29 49.72531 9.28627 21920 ft 390 kts 103°
2026-04-19 06:30 49.72096 9.32694 21657 ft 380 kts 102°
2026-04-19 06:30 49.71670 9.36771 20890 ft 387 kts 102°
2026-04-19 06:30 49.71202 9.40871 20325 ft 387 kts 103°
2026-04-19 06:30 49.70687 9.44941 19826 ft 385 kts 104°
2026-04-19 06:31 49.70139 9.48968 19356 ft 382 kts 105°
2026-04-19 06:31 49.69572 9.52963 18895 ft 379 kts 105°
2026-04-19 06:31 49.69001 9.56923 18449 ft 377 kts 105°
2026-04-19 06:31 49.68434 9.60855 17929 ft 374 kts 105°
2026-04-19 06:32 49.67870 9.64762 17510 ft 370 kts 105°
2026-04-19 06:32 49.67314 9.68633 16984 ft 369 kts 105°
2026-04-19 06:32 49.66762 9.72505 16564 ft 366 kts 105°
2026-04-19 06:32 49.66215 9.76346 16063 ft 366 kts 105°
2026-04-19 06:33 49.65669 9.80158 15595 ft 364 kts 105°
2026-04-19 06:33 49.65125 9.83943 15198 ft 361 kts 105°
2026-04-19 06:33 49.64584 9.87715 14819 ft 357 kts 105°
2026-04-19 06:33 49.64044 9.91465 14378 ft 356 kts 105°
2026-04-19 06:34 49.63508 9.95193 13925 ft 356 kts 104°
2026-04-19 06:34 49.62975 9.98877 13639 ft 350 kts 104°
2026-04-19 06:34 49.62447 10.02533 13144 ft 349 kts 104°
2026-04-19 06:34 49.61918 10.06189 12706 ft 347 kts 104°
2026-04-19 06:35 49.61391 10.09813 12214 ft 346 kts 104°
2026-04-19 06:35 49.60872 10.13370 11740 ft 345 kts 104°
2026-04-19 06:35 49.60348 10.16952 11315 ft 342 kts 105°
2026-04-19 06:35 49.59818 10.20560 10885 ft 340 kts 105°
2026-04-19 06:36 49.59303 10.24058 10482 ft 337 kts 105°
2026-04-19 06:36 49.58776 10.27627 10054 ft 335 kts 105°
2026-04-19 06:36 49.58262 10.31100 9756 ft 328 kts 105°
2026-04-19 06:36 49.57763 10.34471 9524 ft 318 kts 105°
2026-04-19 06:37 49.57274 10.37773 9013 ft 314 kts 104°
2026-04-19 06:37 49.56797 10.40982 8534 ft 310 kts 105°
2026-04-19 06:37 49.56318 10.44198 8021 ft 306 kts 105°
2026-04-19 06:37 49.55844 10.47383 7500 ft 304 kts 105°
2026-04-19 06:38 49.55372 10.50541 6981 ft 301 kts 104°
2026-04-19 06:38 49.54977 10.53698 6449 ft 300 kts 101°
2026-04-19 06:38 49.54679 10.56820 6145 ft 288 kts 98°
2026-04-19 06:38 49.54461 10.59791 6022 ft 270 kts 99°
2026-04-19 06:39 49.54221 10.62536 6027 ft 248 kts 100°
2026-04-19 06:39 49.53979 10.65082 6029 ft 236 kts 101°
2026-04-19 06:39 49.53745 10.67542 5900 ft 229 kts 101°
2026-04-19 06:39 49.53518 10.69938 5670 ft 223 kts 101°
2026-04-19 06:40 49.53296 10.72273 5338 ft 219 kts 101°
2026-04-19 06:40 49.53079 10.74559 5047 ft 211 kts 101°
2026-04-19 06:40 49.52871 10.76755 4775 ft 204 kts 101°
2026-04-19 06:40 49.52666 10.78897 4500 ft 201 kts 101°
2026-04-19 06:41 49.52463 10.81014 4237 ft 198 kts 101°
2026-04-19 06:41 49.52266 10.83076 3985 ft 191 kts 101°
2026-04-19 06:41 49.52082 10.85008 3730 ft 175 kts 101°
2026-04-19 06:41 49.51911 10.86793 3503 ft 162 kts 101°
2026-04-19 06:42 49.51750 10.88457 3298 ft 152 kts 102°
2026-04-19 06:42 49.51599 10.90026 3106 ft 145 kts 102°
2026-04-19 06:42 49.51452 10.91544 2911 ft 142 kts 101°
2026-04-19 06:42 49.51356 10.92532 2786 ft 140 kts 101°
2026-04-19 06:43 49.51214 10.94007 2600 ft 139 kts 101°
2026-04-19 06:43 49.51072 10.95462 2424 ft 137 kts 101°
2026-04-19 06:43 49.50933 10.96900 2233 ft 135 kts 101°
2026-04-19 06:43 49.50795 10.98320 2062 ft 134 kts 101°
2026-04-19 06:44 49.50659 10.99722 1882 ft 131 kts 100°
2026-04-19 06:44 49.50531 11.01111 1695 ft 130 kts 100°
2026-04-19 06:44 49.50387 11.02478 1510 ft 129 kts 101°
2026-04-19 06:44 49.50261 11.03842 1344 ft 128 kts 99°
2026-04-19 06:45 49.50125 11.05200 1150 ft 128 kts 100°
2026-04-19 06:45 49.49994 11.06536 1020 ft 119 kts 100°
2026-04-19 06:45 49.49891 11.07593 1032 ft 76 kts 98°
2026-04-19 06:45 49.49829 11.08199 1026 ft 50 kts 99°
2026-04-19 06:46 49.49783 11.08657 1029 ft 33 kts 99°
2026-04-19 06:46 49.49751 11.08988 1037 ft 30 kts 98°
2026-04-19 06:46 49.49721 11.09299 1042 ft 30 kts 98°
2026-04-19 06:46 49.49661 11.09544 1045 ft 20 kts 165°
2026-04-19 06:47 49.49557 11.09412 1042 ft 21 kts 234°
2026-04-19 06:47 49.49545 11.09185 1039 ft 24 kts 279°
2026-04-19 06:47 49.49568 11.08925 1037 ft 25 kts 277°
2026-04-19 06:47 49.49595 11.08647 1034 ft 27 kts 279°
2026-04-19 06:48 49.49610 11.08389 1031 ft 11 kts 243°
2026-04-19 06:48 49.49605 11.08379 1031 ft 3 kts 234°
2026-04-19 06:48 49.49573 11.08359 1032 ft 5 kts 199°
2026-04-19 06:48 49.49544 11.08336 1033 ft 6 kts 230°
2026-04-19 06:49 49.49539 11.08233 1031 ft 14 kts 280°
2026-04-19 06:49 49.49558 11.08052 1030 ft 20 kts 278°
2026-04-19 06:49 49.49578 11.07843 1030 ft 20 kts 277°
2026-04-19 06:49 49.49549 11.07730 1026 ft 7 kts 187°
2026-04-19 06:50 49.49520 11.07724 1026 ft 0 kts 188°